• In Hungary
  • List of Countries
  • For 7 days
  • Water Temperature
  • Satellite Maps
  • Weather Map
  • News
  • Weather Widgets
  • user-avatar
    Login

    Hourly Weather Malye Shapy

    Today, 18 August, Saturday

    Time Temperature Precipitation Wind Pressure Humidity
    00:00 +10°C° 0 mm 2 mps 756 mmHg 84%
    01:00 +10°C° 0 mm 2 mps 756 mmHg 85%
    02:00 +10°C° 0 mm 1 mps 756 mmHg 87%
    03:00 +10°C° 0 mm 1 mps 756 mmHg 90%
    04:00 +10°C° 0 mm 1 mps 757 mmHg 88%
    05:00 +10°C° 0 mm 2 mps 757 mmHg 85%
    06:00 +10°C° 0 mm 2 mps 757 mmHg 83%
    07:00 +13°C° 0 mm 2 mps 757 mmHg 75%
    08:00 +15°C° 0 mm 2 mps 757 mmHg 67%
    09:00 +17°C° 0 mm 3 mps 757 mmHg 58%
    10:00 +18°C° 0 mm 3 mps 757 mmHg 55%
    11:00 +19°C° 0 mm 3 mps 757 mmHg 51%
    12:00 +20°C° 0 mm 3 mps 757 mmHg 48%
    13:00 +20°C° 0 mm 3 mps 757 mmHg 48%
    14:00 +20°C° 0 mm 3 mps 756 mmHg 48%
    15:00 +21°C° 0 mm 3 mps 756 mmHg 47%
    16:00 +20°C° 0 mm 2 mps 756 mmHg 53%
    17:00 +20°C° 0 mm 2 mps 756 mmHg 58%
    18:00 +20°C° 0 mm 1 mps 756 mmHg 64%
    19:00 +18°C° 0 mm 1 mps 756 mmHg 69%
    20:00 +15°C° 0 mm 1 mps 756 mmHg 74%
    21:00 +14°C° 0 mm 1 mps 756 mmHg 80%
    22:00 +13°C° 0 mm 1 mps 756 mmHg 82%
    23:00 +13°C° 0 mm 1 mps 756 mmHg 84%

    Tomorrow, 19 August, Sunday

    Time Temperature Precipitation Wind Pressure Humidity
    00:00 +12°C° 0 mm 1 mps 756 mmHg 87%
    01:00 +12°C° 0 mm 1 mps 756 mmHg 88%
    02:00 +12°C° 0 mm 1 mps 756 mmHg 90%
    03:00 +12°C° 0 mm 1 mps 756 mmHg 91%
    04:00 +12°C° 0 mm 1 mps 756 mmHg 89%
    05:00 +13°C° 0 mm 1 mps 756 mmHg 87%
    06:00 +13°C° 0 mm 1 mps 756 mmHg 85%
    07:00 +15°C° 0 mm 1 mps 756 mmHg 77%
    08:00 +19°C° 0 mm 1 mps 756 mmHg 69%
    09:00 +21°C° 0 mm 1 mps 756 mmHg 61%
    10:00 +22°C° 0 mm 1 mps 756 mmHg 57%
    11:00 +23°C° 0 mm 1 mps 756 mmHg 53%
    12:00 +24°C° 0 mm 1 mps 755 mmHg 49%
    13:00 +24°C° 0 mm 1 mps 755 mmHg 49%
    14:00 +24°C° 0 mm 1 mps 755 mmHg 49%
    15:00 +24°C° 0 mm 1 mps 754 mmHg 49%
    16:00 +23°C° 0 mm 1 mps 754 mmHg 54%
    17:00 +22°C° 0 mm 1 mps 753 mmHg 58%
    18:00 +22°C° 0 mm 1 mps 753 mmHg 63%
    19:00 +20°C° 0 mm 1 mps 753 mmHg 68%
    20:00 +17°C° 0 mm 2 mps 753 mmHg 73%
    21:00 +15°C° 0 mm 2 mps 753 mmHg 77%
    22:00 +15°C° 0 mm 2 mps 752 mmHg 80%
    23:00 +14°C° 0 mm 2 mps 752 mmHg 82%

    Day after tomorrow, 20 August, Monday

    Time Temperature Precipitation Wind Pressure Humidity
    00:00 +14°C° 0 mm 2 mps 752 mmHg 84%
    01:00 +14°C° 0 mm 2 mps 752 mmHg 84%
    02:00 +13°C° 0 mm 2 mps 751 mmHg 83%
    03:00 +12°C° 0 mm 3 mps 751 mmHg 83%
    04:00 +13°C° 0 mm 3 mps 751 mmHg 81%
    05:00 +13°C° 0 mm 3 mps 750 mmHg 79%
    06:00 +14°C° 0 mm 3 mps 750 mmHg 78%
    07:00 +16°C° 0 mm 3 mps 750 mmHg 74%
    08:00 +18°C° 0 mm 4 mps 750 mmHg 70%
    09:00 +20°C° 0 mm 4 mps 749 mmHg 67%
    10:00 +20°C° 0.1 mm 4 mps 749 mmHg 70%
    11:00 +20°C° 0.1 mm 4 mps 749 mmHg 73%
    12:00 +20°C° 0.1 mm 5 mps 749 mmHg 76%
    13:00 +21°C° 0.1 mm 4 mps 749 mmHg 76%
    14:00 +21°C° 0.1 mm 4 mps 748 mmHg 75%
    15:00 +22°C° 0.1 mm 4 mps 748 mmHg 75%
    16:00 +21°C° 0.2 mm 3 mps 748 mmHg 76%
    17:00 +21°C° 0.2 mm 3 mps 748 mmHg 77%
    18:00 +21°C° 0.2 mm 2 mps 748 mmHg 78%
    19:00 +20°C° 0.1 mm 2 mps 748 mmHg 82%
    20:00 +19°C° 0.1 mm 2 mps 748 mmHg 86%
    21:00 +17°C° 0.1 mm 2 mps 748 mmHg 90%
    22:00 +17°C° 0 mm 2 mps 748 mmHg 91%
    23:00 +16°C° 0 mm 2 mps 748 mmHg 93%

    21 August, Tuesday

    Time Temperature Precipitation Wind Pressure Humidity
    00:00 +16°C° 0 mm 1 mps 748 mmHg 94%
    01:00 +16°C° 0 mm 1 mps 748 mmHg 94%
    02:00 +15°C° 0 mm 1 mps 748 mmHg 95%
    03:00 +15°C° 0 mm 1 mps 747 mmHg 95%
    04:00 +16°C° 0 mm 1 mps 747 mmHg 95%
    05:00 +16°C° 0 mm 2 mps 747 mmHg 94%
    06:00 +16°C° 0 mm 2 mps 747 mmHg 93%
    07:00 +17°C° 0.1 mm 2 mps 747 mmHg 90%
    08:00 +19°C° 0.1 mm 2 mps 747 mmHg 86%
    09:00 +20°C° 0.1 mm 2 mps 747 mmHg 83%
    10:00 +21°C° 0.7 mm 3 mps 746 mmHg 80%
    11:00 +22°C° 0.7 mm 3 mps 746 mmHg 77%
    12:00 +23°C° 0.7 mm 4 mps 746 mmHg 75%
    13:00 +25°C° 0.3 mm 4 mps 745 mmHg 70%
    14:00 +26°C° 0.3 mm 5 mps 745 mmHg 65%
    15:00 +27°C° 0.3 mm 5 mps 744 mmHg 60%
    16:00 +26°C° 0 mm 5 mps 744 mmHg 62%
    17:00 +25°C° 0 mm 4 mps 743 mmHg 65%
    18:00 +25°C° 0 mm 4 mps 743 mmHg 67%
    19:00 +23°C° 0.1 mm 4 mps 743 mmHg 70%
    20:00 +21°C° 0.1 mm 4 mps 743 mmHg 73%
    21:00 +20°C° 0.1 mm 4 mps 742 mmHg 76%
    22:00 +20°C° 0.6 mm 4 mps 742 mmHg 81%
    23:00 +19°C° 0.6 mm 4 mps 742 mmHg 86%

    22 August, Wednesday

    Time Temperature Precipitation Wind Pressure Humidity
    00:00 +18°C° 0.6 mm 4 mps 742 mmHg 91%
    01:00 +18°C° 1.9 mm 4 mps 742 mmHg 92%
    02:00 +17°C° 1.9 mm 4 mps 742 mmHg 93%
    03:00 +17°C° 1.9 mm 4 mps 742 mmHg 94%
    04:00 +15°C° 0.2 mm 4 mps 742 mmHg 93%
    05:00 +14°C° 0.2 mm 4 mps 742 mmHg 93%
    06:00 +13°C° 0.2 mm 3 mps 743 mmHg 92%
    07:00 +14°C° 0 mm 4 mps 743 mmHg 86%
    08:00 +15°C° 0 mm 4 mps 744 mmHg 80%
    09:00 +17°C° 0 mm 4 mps 744 mmHg 73%
    10:00 +18°C° 0 mm 4 mps 744 mmHg 66%
    11:00 +19°C° 0 mm 4 mps 744 mmHg 60%
    12:00 +20°C° 0 mm 5 mps 745 mmHg 53%
    13:00 +19°C° 0.3 mm 5 mps 745 mmHg 56%
    14:00 +19°C° 0.3 mm 5 mps 745 mmHg 58%
    15:00 +19°C° 0.3 mm 5 mps 745 mmHg 61%
    16:00 +18°C° 0.2 mm 4 mps 746 mmHg 67%
    17:00 +17°C° 0.2 mm 4 mps 746 mmHg 73%
    18:00 +16°C° 0.2 mm 3 mps 747 mmHg 78%
    19:00 +14°C° 0 mm 3 mps 748 mmHg 81%
    20:00 +13°C° 0 mm 3 mps 748 mmHg 84%
    21:00 +12°C° 0 mm 2 mps 749 mmHg 87%
    22:00 +12°C° 0 mm 2 mps 749 mmHg 88%
    23:00 +10°C° 0 mm 2 mps 750 mmHg 90%

    23 August, Thursday

    Time Temperature Precipitation Wind Pressure Humidity
    00:00 +9°C° 0 mm 2 mps 750 mmHg 91%
    01:00 +9°C° 0 mm 2 mps 750 mmHg 92%
    02:00 +8°C° 0 mm 2 mps 751 mmHg 92%
    03:00 +8°C° 0 mm 2 mps 751 mmHg 93%
    04:00 +8°C° 0 mm 2 mps 752 mmHg 92%
    05:00 +8°C° 0 mm 2 mps 752 mmHg 90%
    06:00 +8°C° 0 mm 2 mps 752 mmHg 88%
    07:00 +10°C° 0 mm 3 mps 753 mmHg 79%
    08:00 +12°C° 0 mm 3 mps 753 mmHg 70%
    09:00 +14°C° 0 mm 4 mps 753 mmHg 61%
    10:00 +15°C° 0 mm 4 mps 753 mmHg 56%
    11:00 +17°C° 0 mm 4 mps 753 mmHg 51%
    12:00 +18°C° 0 mm 4 mps 753 mmHg 46%
    13:00 +18°C° 0 mm 4 mps 753 mmHg 45%
    14:00 +19°C° 0 mm 4 mps 753 mmHg 45%
    15:00 +19°C° 0 mm 4 mps 753 mmHg 44%
    16:00 +18°C° 0 mm 3 mps 753 mmHg 50%
    17:00 +18°C° 0 mm 2 mps 753 mmHg 56%
    18:00 +17°C° 0 mm 2 mps 752 mmHg 62%
    19:00 +15°C° 0 mm 2 mps 752 mmHg 65%
    20:00 +14°C° 0 mm 2 mps 752 mmHg 69%
    21:00 +12°C° 0 mm 2 mps 752 mmHg 73%
    22:00 +12°C° 0 mm 2 mps 752 mmHg 75%
    23:00 +12°C° 0 mm 2 mps 752 mmHg 78%
    Show more